Location: Arrien
(43.3167°N, 0.1500°W)
Time: 17:20:16
(UTC+00:00)

Cosmos 2082 - Pass Details

Date: 28 May 2022
Orbit: 835 x 853 km, 71.0° (Epoch: 01 July)

Event Time Altitude Azimuth Distance (km) Brightness Sun altitude
Rises 21:07:13 0° 328° (NNW) 3,397 8.7 -14.2°
Reaches altitude 10° 21:09:47 10° 321° (NW) 2,457 7.6 -14.5°
Maximum altitude 21:14:59 39° 254° (WSW) 1,228 4.7 -15.1°
Enters shadow 21:19:46 12° 188° (S) 2,312 5.6 -15.6°
